Powrót do katalogu

SL-14 DEB

AktywnyPO
NORAD 19226·DEBRIS·🇷🇺 Russia

Wystrzelony Oct 26, 1978 z Plesetsk Cosmodrome

Loading…

Następne Przeloty (najbliższe 24 godziny)

TLE

ŚwieżeSource: Space-Track

Epoka: Sep 14, 2026, 14:12 UTC

1 19226U 78100V   26257.59234177 -.00000001  00000-0 -12131-3 0  9990
2 19226  82.5296 299.6348 0047547  63.0517  92.1205 12.00849478676892

Śledź SL-14 DEB w czasie rzeczywistym z AllMySat

Download on the App Store